Location: Hurecourt
(47.9030°N, 6.0653°E)
Time: 20:24:49
(UTC+00:00)

Cosmos 1607 - Pass Details

Date: 14 July 2020
Orbit: 912 x 990 km, 65.0° (Epoch: 14 August)

Event Time Altitude Azimuth Distance (km) Brightness Sun altitude
Exits shadow 00:20:03 18° 241° (WSW) 2,119 5.4 -19.9°
Maximum altitude 00:24:36 56° 315° (NW) 1,126 4.5 -19.8°
Drops below altitude 10° 00:30:50 10° 33° (NNE) 2,715 7.4 -19.6°
Sets 00:33:30 0° 38° (NE) 3,675 8.2 -19.5°
